Time,TemperatureF,DewpointF,PressureIn,WindDirection,WindDirectionDegrees,WindSpeedMPH,WindSpeedGustMPH,Humidity,HourlyPrecipIn,Conditions,Clouds,dailyrainin,SoftwareType,DateUTC
2013-12-14 00:03:00,59.9,57.0,29.96,SSE,159,3.0,11.0,90,0.00,,,0.00,meteohub,2013-12-14 06:03:00,
2013-12-14 00:08:00,60.1,57.2,29.96,South,179,5.0,11.0,90,0.00,,,0.00,meteohub,2013-12-14 06:08:00,
2013-12-14 00:13:00,60.1,57.2,29.95,SE,142,5.0,11.0,90,0.00,,,0.00,meteohub,2013-12-14 06:13:00,
2013-12-14 00:18:00,60.1,57.4,29.95,SSE,148,5.0,11.0,91,0.00,,,0.00,meteohub,2013-12-14 06:18:00,
2013-12-14 00:23:00,60.4,57.7,29.94,SSE,150,9.0,11.0,91,0.00,,,0.00,meteohub,2013-12-14 06:23:00,
2013-12-14 00:28:00,60.6,57.9,29.94,SSE,155,7.0,17.0,91,0.00,,,0.00,meteohub,2013-12-14 06:28:00,
2013-12-14 00:33:00,61.0,58.1,29.93,SE,143,9.0,17.0,90,0.00,,,0.00,meteohub,2013-12-14 06:33:00,
2013-12-14 00:38:00,61.2,58.3,29.93,SSE,161,11.0,17.0,90,0.00,,,0.00,meteohub,2013-12-14 06:38:00,
2013-12-14 00:43:00,61.3,58.5,29.93,SSE,150,12.0,18.0,90,0.00,,,0.00,meteohub,2013-12-14 06:43:00,
2013-12-14 00:48:00,61.5,58.6,29.92,SE,142,8.0,18.0,90,0.00,,,0.00,meteohub,2013-12-14 06:48:00,
2013-12-14 00:53:00,61.9,59.0,29.92,SE,142,6.0,18.0,90,0.00,,,0.00,meteohub,2013-12-14 06:53:00,
2013-12-14 00:58:00,62.1,59.2,29.92,SE,131,5.0,15.0,90,0.00,,,0.00,meteohub,2013-12-14 06:58:00,
2013-12-14 01:03:00,62.1,58.8,29.92,South,171,1.0,14.0,89,0.00,,,0.00,meteohub,2013-12-14 07:03:00,
2013-12-14 01:08:00,62.1,58.8,29.92,SSE,167,4.0,14.0,89,0.00,,,0.00,meteohub,2013-12-14 07:08:00,
2013-12-14 01:13:00,62.1,58.8,29.92,South,188,5.0,13.0,89,0.00,,,0.00,meteohub,2013-12-14 07:13:00,
2013-12-14 01:18:00,62.2,59.0,29.92,SSE,150,7.0,13.0,89,0.00,,,0.00,meteohub,2013-12-14 07:18:00,
2013-12-14 01:23:00,62.2,59.0,29.92,SSW,205,5.0,13.0,89,0.00,,,0.00,meteohub,2013-12-14 07:23:00,
2013-12-14 01:28:00,62.4,59.2,29.92,South,170,5.0,13.0,89,0.00,,,0.00,meteohub,2013-12-14 07:28:00,
2013-12-14 01:33:00,62.4,59.2,29.92,SE,145,4.0,13.0,89,0.00,,,0.00,meteohub,2013-12-14 07:33:00,
2013-12-14 01:38:00,62.6,59.4,29.91,South,185,2.0,13.0,89,0.00,,,0.00,meteohub,2013-12-14 07:38:00,
2013-12-14 01:43:00,62.8,59.5,29.91,SE,145,6.0,12.0,89,0.00,,,0.00,meteohub,2013-12-14 07:43:00,
2013-12-14 01:48:00,63.0,59.7,29.91,South,186,5.0,10.0,89,0.00,,,0.00,meteohub,2013-12-14 07:48:00,
2013-12-14 01:53:00,63.1,59.9,29.91,SSE,167,6.0,12.0,89,0.00,,,0.00,meteohub,2013-12-14 07:53:00,
2013-12-14 01:58:00,63.3,60.3,29.91,SE,129,6.0,12.0,90,0.00,,,0.00,meteohub,2013-12-14 07:58:00,
2013-12-14 02:03:00,63.7,60.6,29.91,SSE,157,6.0,12.0,90,0.00,,,0.00,meteohub,2013-12-14 08:03:00,
2013-12-14 02:08:00,63.9,60.8,29.90,SE,127,5.0,11.0,90,0.00,,,0.00,meteohub,2013-12-14 08:08:00,
2013-12-14 02:13:00,64.2,61.2,29.90,SSE,165,12.0,12.0,90,0.00,,,0.00,meteohub,2013-12-14 08:13:00,
2013-12-14 02:18:00,64.6,61.5,29.90,SSE,163,9.0,16.0,90,0.00,,,0.00,meteohub,2013-12-14 08:18:00,
2013-12-14 02:23:00,64.9,61.9,29.90,SE,144,4.0,16.0,90,0.00,,,0.00,meteohub,2013-12-14 08:23:00,
2013-12-14 02:28:00,65.1,61.9,29.89,South,187,7.0,16.0,89,0.00,,,0.00,meteohub,2013-12-14 08:28:00,
2013-12-14 02:33:00,65.5,62.2,29.89,South,181,7.0,17.0,89,0.00,,,0.00,meteohub,2013-12-14 08:33:00,
2013-12-14 02:38:00,65.7,62.2,29.89,South,181,7.0,17.0,89,0.00,,,0.00,meteohub,2013-12-14 08:38:00,
2013-12-14 02:43:00,65.8,62.4,29.88,South,182,4.0,17.0,89,0.00,,,0.00,meteohub,2013-12-14 08:43:00,
2013-12-14 02:48:00,65.8,62.2,29.88,South,176,5.0,16.0,88,0.00,,,0.00,meteohub,2013-12-14 08:48:00,
2013-12-14 02:53:00,66.2,62.6,29.88,SSE,162,5.0,16.0,88,0.00,,,0.00,meteohub,2013-12-14 08:53:00,
2013-12-14 02:58:00,66.4,62.8,29.88,SSE,154,7.0,16.0,88,0.00,,,0.00,meteohub,2013-12-14 08:58:00,
2013-12-14 03:03:00,66.6,63.0,29.88,SSE,151,12.0,16.0,88,0.00,,,0.00,meteohub,2013-12-14 09:03:00,
2013-12-14 03:08:00,66.7,63.1,29.88,South,174,13.0,16.0,88,0.00,,,0.00,meteohub,2013-12-14 09:08:00,
2013-12-14 03:13:00,66.9,63.3,29.88,South,186,9.0,15.0,88,0.00,,,0.00,meteohub,2013-12-14 09:13:00,
2013-12-14 03:18:00,67.3,63.7,29.88,South,176,6.0,15.0,88,0.00,,,0.00,meteohub,2013-12-14 09:18:00,
2013-12-14 03:23:00,67.5,63.9,29.87,SSW,209,5.0,17.0,88,0.00,,,0.00,meteohub,2013-12-14 09:23:00,
2013-12-14 03:28:00,67.5,63.9,29.87,SSW,198,7.0,17.0,88,0.00,,,0.00,meteohub,2013-12-14 09:28:00,
2013-12-14 03:33:00,67.6,64.0,29.87,SSE,155,3.0,17.0,88,0.00,,,0.00,meteohub,2013-12-14 09:33:00,
2013-12-14 03:38:00,67.6,64.0,29.87,South,188,6.0,16.0,88,0.00,,,0.00,meteohub,2013-12-14 09:38:00,
2013-12-14 03:43:00,67.6,64.0,29.88,SSW,199,6.0,16.0,88,0.00,,,0.00,meteohub,2013-12-14 09:43:00,
2013-12-14 03:48:00,67.8,64.4,29.87,South,182,9.0,17.0,89,0.00,,,0.00,meteohub,2013-12-14 09:48:00,
2013-12-14 03:53:00,68.2,64.8,29.87,West,272,6.0,17.0,89,0.00,,,0.00,meteohub,2013-12-14 09:53:00,
2013-12-14 03:58:00,68.2,64.8,29.87,SSW,193,4.0,17.0,89,0.00,,,0.00,meteohub,2013-12-14 09:58:00,
2013-12-14 04:03:00,68.2,64.8,29.87,South,190,12.0,17.0,89,0.00,,,0.00,meteohub,2013-12-14 10:03:00,
2013-12-14 04:08:00,68.4,64.9,29.87,SSE,153,9.0,15.0,89,0.00,,,0.00,meteohub,2013-12-14 10:08:00,
2013-12-14 04:13:00,68.4,64.9,29.87,SSW,208,6.0,14.0,89,0.00,,,0.00,meteohub,2013-12-14 10:13:00,
2013-12-14 04:18:00,68.4,64.9,29.86,SSW,194,12.0,14.0,89,0.00,,,0.00,meteohub,2013-12-14 10:18:00,
2013-12-14 04:23:00,68.4,64.6,29.86,SSW,194,8.0,17.0,88,0.00,,,0.00,meteohub,2013-12-14 10:23:00,
2013-12-14 04:28:00,68.5,65.1,29.86,South,188,8.0,17.0,89,0.00,,,0.00,meteohub,2013-12-14 10:28:00,
2013-12-14 04:33:00,68.5,64.8,29.86,SSW,193,6.0,17.0,88,0.00,,,0.00,meteohub,2013-12-14 10:33:00,
2013-12-14 04:38:00,68.5,64.8,29.86,SSW,194,6.0,14.0,88,0.00,,,0.00,meteohub,2013-12-14 10:38:00,
2013-12-14 04:43:00,68.5,64.8,29.86,SSW,201,10.0,15.0,88,0.00,,,0.00,meteohub,2013-12-14 10:43:00,
2013-12-14 04:48:00,68.4,64.4,29.85,South,181,6.0,15.0,87,0.00,,,0.00,meteohub,2013-12-14 10:48:00,
2013-12-14 04:53:00,68.5,64.8,29.86,SSW,197,5.0,15.0,88,0.00,,,0.00,meteohub,2013-12-14 10:53:00,
2013-12-14 04:58:00,68.5,64.8,29.86,South,184,7.0,12.0,88,0.00,,,0.00,meteohub,2013-12-14 10:58:00,
2013-12-14 05:03:00,68.7,65.3,29.86,South,173,4.0,13.0,89,0.00,,,0.00,meteohub,2013-12-14 11:03:00,
2013-12-14 05:08:00,68.7,65.3,29.86,SW,217,2.0,13.0,89,0.00,,,0.00,meteohub,2013-12-14 11:08:00,
2013-12-14 05:13:00,68.7,65.3,29.86,SW,221,7.0,13.0,89,0.00,,,0.00,meteohub,2013-12-14 11:13:00,
2013-12-14 05:18:00,68.7,65.7,29.86,SSW,198,7.0,16.0,90,0.00,,,0.00,meteohub,2013-12-14 11:18:00,
2013-12-14 05:23:00,68.7,65.7,29.87,SW,223,8.0,16.0,90,0.00,,,0.00,meteohub,2013-12-14 11:23:00,
2013-12-14 05:28:00,68.5,65.8,29.87,WSW,249,6.0,18.0,91,0.01,,,0.01,meteohub,2013-12-14 11:28:00,
2013-12-14 05:33:00,67.3,64.2,29.90,West,260,13.0,18.0,90,0.03,,,0.03,meteohub,2013-12-14 11:33:00,
2013-12-14 05:38:00,66.4,64.0,29.89,WSW,257,6.0,18.0,92,0.06,,,0.06,meteohub,2013-12-14 11:38:00,
2013-12-14 05:43:00,66.0,63.9,29.89,West,263,7.0,17.0,93,0.10,,,0.10,meteohub,2013-12-14 11:43:00,
2013-12-14 05:48:00,65.8,64.0,29.90,WNW,282,7.0,17.0,94,0.12,,,0.11,meteohub,2013-12-14 11:48:00,
2013-12-14 05:53:00,65.8,64.0,29.90,West,263,8.0,12.0,94,0.19,,,0.17,meteohub,2013-12-14 11:53:00,
2013-12-14 05:58:00,65.7,64.2,29.90,West,277,9.0,11.0,95,0.27,,,0.27,meteohub,2013-12-14 11:58:00,
2013-12-14 06:03:00,65.8,64.4,29.90,WSW,254,7.0,12.0,95,0.28,,,0.28,meteohub,2013-12-14 12:03:00,
2013-12-14 06:08:00,65.7,64.2,29.91,WSW,258,6.0,12.0,95,0.28,,,0.28,meteohub,2013-12-14 12:08:00,
2013-12-14 06:13:00,65.7,64.4,29.91,WSW,257,7.0,12.0,96,0.31,,,0.31,meteohub,2013-12-14 12:13:00,
2013-12-14 06:18:00,65.7,64.4,29.91,WSW,244,7.0,15.0,96,0.33,,,0.33,meteohub,2013-12-14 12:18:00,
2013-12-14 06:23:00,65.7,64.4,29.91,WSW,238,3.0,15.0,96,0.34,,,0.34,meteohub,2013-12-14 12:23:00,
2013-12-14 06:28:00,65.7,64.4,29.91,West,259,4.0,15.0,96,0.33,,,0.34,meteohub,2013-12-14 12:28:00,
2013-12-14 06:33:00,65.5,64.2,29.91,West,261,5.0,12.0,96,0.30,,,0.34,meteohub,2013-12-14 12:33:00,
2013-12-14 06:38:00,65.5,64.2,29.91,WSW,246,3.0,9.0,96,0.28,,,0.34,meteohub,2013-12-14 12:38:00,
2013-12-14 06:43:00,65.5,64.2,29.91,SW,236,5.0,8.0,96,0.24,,,0.34,meteohub,2013-12-14 12:43:00,
2013-12-14 06:48:00,65.5,64.2,29.92,WSW,246,5.0,8.0,96,0.22,,,0.34,meteohub,2013-12-14 12:48:00,
2013-12-14 06:53:00,65.5,64.2,29.92,WSW,237,5.0,10.0,96,0.16,,,0.34,meteohub,2013-12-14 12:53:00,
2013-12-14 06:58:00,65.5,64.2,29.92,WSW,251,6.0,10.0,96,0.07,,,0.34,meteohub,2013-12-14 12:58:00,
2013-12-14 07:03:00,65.5,64.2,29.92,WSW,247,4.0,10.0,96,0.06,,,0.34,meteohub,2013-12-14 13:03:00,
2013-12-14 07:08:00,65.5,64.2,29.92,SW,236,6.0,9.0,96,0.06,,,0.34,meteohub,2013-12-14 13:08:00,
2013-12-14 07:13:00,65.5,64.2,29.92,WSW,238,7.0,10.0,96,0.03,,,0.34,meteohub,2013-12-14 13:13:00,
2013-12-14 07:18:00,65.7,64.4,29.92,SW,236,8.0,10.0,96,0.01,,,0.34,meteohub,2013-12-14 13:18:00,
2013-12-14 07:23:00,65.8,64.6,29.93,WSW,237,10.0,11.0,96,0.00,,,0.34,meteohub,2013-12-14 13:23:00,
2013-12-14 07:28:00,65.7,64.4,29.93,WSW,246,7.0,11.0,96,0.00,,,0.34,meteohub,2013-12-14 13:28:00,
2013-12-14 07:33:00,65.7,64.4,29.93,WSW,240,7.0,11.0,96,0.00,,,0.34,meteohub,2013-12-14 13:33:00,
2013-12-14 07:38:00,65.7,64.4,29.93,WSW,239,8.0,11.0,96,0.00,,,0.34,meteohub,2013-12-14 13:38:00,
2013-12-14 07:43:00,65.7,64.4,29.93,SW,235,6.0,11.0,96,0.00,,,0.34,meteohub,2013-12-14 13:43:00,
2013-12-14 07:48:00,65.7,64.4,29.94,WSW,237,5.0,11.0,96,0.00,,,0.34,meteohub,2013-12-14 13:48:00,
2013-12-14 07:53:00,65.7,64.4,29.93,West,259,6.0,11.0,96,0.00,,,0.34,meteohub,2013-12-14 13:53:00,
2013-12-14 07:58:00,65.5,64.2,29.94,WSW,252,6.0,9.0,96,0.00,,,0.34,meteohub,2013-12-14 13:58:00,
2013-12-14 08:03:00,65.7,64.4,29.94,West,260,5.0,8.0,96,0.00,,,0.34,meteohub,2013-12-14 14:03:00,
2013-12-14 08:08:00,65.7,64.4,29.94,WSW,257,7.0,8.0,96,0.00,,,0.34,meteohub,2013-12-14 14:08:00,
2013-12-14 08:13:00,65.7,64.4,29.94,West,261,5.0,9.0,96,0.00,,,0.34,meteohub,2013-12-14 14:13:00,
2013-12-14 08:18:00,65.7,64.4,29.94,WSW,252,5.0,9.0,96,0.00,,,0.34,meteohub,2013-12-14 14:18:00,
2013-12-14 08:23:00,65.7,64.4,29.94,WSW,252,4.0,9.0,96,0.00,,,0.34,meteohub,2013-12-14 14:23:00,
2013-12-14 08:28:00,65.8,64.6,29.94,WSW,252,3.0,9.0,96,0.00,,,0.34,meteohub,2013-12-14 14:28:00,
2013-12-14 08:33:00,65.8,64.4,29.94,WSW,248,5.0,8.0,95,0.00,,,0.34,meteohub,2013-12-14 14:33:00,
2013-12-14 08:38:00,66.0,64.6,29.94,West,260,4.0,8.0,95,0.00,,,0.34,meteohub,2013-12-14 14:38:00,
2013-12-14 08:43:00,65.8,64.4,29.94,WSW,257,7.0,8.0,95,0.00,,,0.34,meteohub,2013-12-14 14:43:00,
2013-12-14 08:48:00,65.8,64.4,29.94,WSW,250,5.0,8.0,95,0.00,,,0.34,meteohub,2013-12-14 14:48:00,
2013-12-14 08:53:00,66.0,64.6,29.94,West,263,5.0,8.0,95,0.00,,,0.34,meteohub,2013-12-14 14:53:00,
2013-12-14 08:58:00,66.0,64.6,29.94,WSW,256,4.0,8.0,95,0.00,,,0.34,meteohub,2013-12-14 14:58:00,
2013-12-14 09:03:00,66.0,64.6,29.94,West,261,2.0,7.0,95,0.00,,,0.34,meteohub,2013-12-14 15:03:00,
2013-12-14 09:08:00,66.2,64.8,29.94,West,259,4.0,6.0,95,0.00,,,0.34,meteohub,2013-12-14 15:08:00,
2013-12-14 09:13:00,66.6,65.1,29.94,West,270,5.0,6.0,95,0.00,,,0.34,meteohub,2013-12-14 15:13:00,
2013-12-14 09:18:00,66.4,64.6,29.94,West,265,7.0,7.0,94,0.00,,,0.34,meteohub,2013-12-14 15:18:00,
2013-12-14 09:23:00,66.6,64.8,29.94,WSW,249,9.0,9.0,94,0.00,,,0.34,meteohub,2013-12-14 15:23:00,
2013-12-14 09:28:00,66.4,64.0,29.94,WNW,284,7.0,12.0,92,0.00,,,0.34,meteohub,2013-12-14 15:28:00,
2013-12-14 09:33:00,66.4,64.0,29.95,West,259,8.0,12.0,92,0.00,,,0.34,meteohub,2013-12-14 15:33:00,
2013-12-14 09:38:00,66.6,64.2,29.95,West,269,6.0,12.0,92,0.00,,,0.34,meteohub,2013-12-14 15:38:00,
2013-12-14 09:43:00,66.6,64.2,29.94,West,271,7.0,11.0,92,0.00,,,0.34,meteohub,2013-12-14 15:43:00,
2013-12-14 09:48:00,66.6,64.2,29.95,WSW,258,7.0,11.0,92,0.00,,,0.34,meteohub,2013-12-14 15:48:00,
2013-12-14 09:53:00,66.7,64.0,29.95,West,265,9.0,9.0,91,0.00,,,0.34,meteohub,2013-12-14 15:53:00,
2013-12-14 09:58:00,66.9,64.2,29.95,WSW,253,3.0,11.0,91,0.00,,,0.34,meteohub,2013-12-14 15:58:00,
2013-12-14 10:03:00,66.9,64.2,29.94,West,271,5.0,11.0,91,0.00,,,0.34,meteohub,2013-12-14 16:03:00,
2013-12-14 10:08:00,66.7,64.0,29.94,WSW,258,4.0,11.0,91,0.00,,,0.34,meteohub,2013-12-14 16:08:00,
2013-12-14 10:13:00,66.7,64.0,29.95,West,263,5.0,9.0,91,0.00,,,0.34,meteohub,2013-12-14 16:13:00,
2013-12-14 10:18:00,66.7,63.7,29.95,West,271,8.0,9.0,90,0.00,,,0.34,meteohub,2013-12-14 16:18:00,
2013-12-14 10:23:00,66.9,63.9,29.95,West,273,4.0,10.0,90,0.00,,,0.34,meteohub,2013-12-14 16:23:00,
2013-12-14 10:28:00,66.9,63.5,29.94,West,275,3.0,10.0,89,0.00,,,0.34,meteohub,2013-12-14 16:28:00,
2013-12-14 10:33:00,66.9,63.5,29.94,West,266,5.0,10.0,89,0.00,,,0.34,meteohub,2013-12-14 16:33:00,
2013-12-14 10:38:00,66.7,63.1,29.94,WSW,253,7.0,10.0,88,0.00,,,0.34,meteohub,2013-12-14 16:38:00,
2013-12-14 10:43:00,66.9,63.3,29.94,West,270,8.0,9.0,88,0.00,,,0.34,meteohub,2013-12-14 16:43:00,
2013-12-14 10:48:00,66.9,63.3,29.94,West,280,6.0,9.0,88,0.00,,,0.34,meteohub,2013-12-14 16:48:00,
2013-12-14 10:53:00,66.9,63.3,29.94,West,273,7.0,9.0,88,0.00,,,0.34,meteohub,2013-12-14 16:53:00,
2013-12-14 10:58:00,66.9,63.3,29.94,West,267,4.0,10.0,88,0.00,,,0.34,meteohub,2013-12-14 16:58:00,
2013-12-14 11:03:00,66.9,63.5,29.94,WSW,257,6.0,10.0,89,0.00,,,0.34,meteohub,2013-12-14 17:03:00,
2013-12-14 11:08:00,66.9,63.3,29.94,West,272,6.0,10.0,88,0.00,,,0.34,meteohub,2013-12-14 17:08:00,
2013-12-14 11:13:00,66.9,63.3,29.93,West,266,4.0,9.0,88,0.00,,,0.34,meteohub,2013-12-14 17:13:00,
2013-12-14 11:18:00,66.9,63.3,29.93,West,277,6.0,9.0,88,0.00,,,0.34,meteohub,2013-12-14 17:18:00,
2013-12-14 11:23:00,67.1,63.5,29.93,West,274,8.0,9.0,88,0.00,,,0.34,meteohub,2013-12-14 17:23:00,
2013-12-14 11:28:00,67.3,63.7,29.93,West,274,0.0,9.0,88,0.00,,,0.34,meteohub,2013-12-14 17:28:00,
2013-12-14 11:33:00,67.1,63.1,29.92,West,262,5.0,9.0,87,0.00,,,0.34,meteohub,2013-12-14 17:33:00,
2013-12-14 11:38:00,66.9,63.0,29.92,West,275,3.0,9.0,87,0.00,,,0.34,meteohub,2013-12-14 17:38:00,
2013-12-14 11:43:00,67.3,63.3,29.92,WSW,240,3.0,7.0,87,0.00,,,0.34,meteohub,2013-12-14 17:43:00,
2013-12-14 11:48:00,67.3,63.0,29.91,SW,234,7.0,8.0,86,0.00,,,0.34,meteohub,2013-12-14 17:48:00,
2013-12-14 11:53:00,67.1,62.4,29.91,WSW,249,5.0,10.0,85,0.00,,,0.34,meteohub,2013-12-14 17:53:00,
2013-12-14 11:58:00,66.9,62.2,29.91,WSW,258,4.0,10.0,85,0.00,,,0.34,meteohub,2013-12-14 17:58:00,
2013-12-14 12:03:00,67.3,62.6,29.90,West,261,4.0,10.0,85,0.00,,,0.34,meteohub,2013-12-14 18:03:00,
2013-12-14 12:08:00,67.3,63.0,29.90,WSW,246,4.0,8.0,86,0.00,,,0.34,meteohub,2013-12-14 18:08:00,
2013-12-14 12:13:00,67.3,62.6,29.89,West,268,3.0,8.0,85,0.00,,,0.34,meteohub,2013-12-14 18:13:00,
2013-12-14 12:18:00,67.3,62.2,29.89,WSW,255,7.0,7.0,84,0.00,,,0.34,meteohub,2013-12-14 18:18:00,
2013-12-14 12:23:00,66.9,61.5,29.89,West,261,6.0,8.0,83,0.00,,,0.34,meteohub,2013-12-14 18:23:00,
2013-12-14 12:28:00,66.9,61.9,29.90,West,270,4.0,8.0,84,0.00,,,0.34,meteohub,2013-12-14 18:28:00,
2013-12-14 12:33:00,66.9,61.9,29.90,West,274,5.0,9.0,84,0.00,,,0.34,meteohub,2013-12-14 18:33:00,
2013-12-14 12:38:00,66.9,61.9,29.89,West,277,5.0,9.0,84,0.00,,,0.34,meteohub,2013-12-14 18:38:00,
2013-12-14 12:43:00,66.7,62.1,29.89,WNW,292,2.0,9.0,85,0.00,,,0.34,meteohub,2013-12-14 18:43:00,
2013-12-14 12:48:00,66.7,62.1,29.89,WNW,283,2.0,7.0,85,0.00,,,0.34,meteohub,2013-12-14 18:48:00,
2013-12-14 12:53:00,66.6,61.9,29.89,WNW,296,3.0,7.0,85,0.00,,,0.34,meteohub,2013-12-14 18:53:00,
2013-12-14 12:58:00,65.8,61.2,29.89,WNW,301,2.0,6.0,85,0.00,,,0.34,meteohub,2013-12-14 18:58:00,
2013-12-14 13:03:00,65.7,61.3,29.89,WNW,291,2.0,6.0,86,0.00,,,0.34,meteohub,2013-12-14 19:03:00,
2013-12-14 13:08:00,65.7,61.7,29.90,WNW,286,1.0,6.0,87,0.00,,,0.34,meteohub,2013-12-14 19:08:00,
2013-12-14 13:13:00,65.7,61.7,29.91,WNW,286,0.0,6.0,87,0.00,,,0.34,meteohub,2013-12-14 19:13:00,
2013-12-14 13:18:00,65.8,62.2,29.90,West,270,5.0,5.0,88,0.00,,,0.34,meteohub,2013-12-14 19:18:00,
2013-12-14 13:23:00,66.0,62.1,29.91,West,261,7.0,10.0,87,0.00,,,0.34,meteohub,2013-12-14 19:23:00,
2013-12-14 13:28:00,66.0,62.4,29.91,West,268,5.0,10.0,88,0.00,,,0.34,meteohub,2013-12-14 19:28:00,
2013-12-14 13:33:00,66.0,62.1,29.91,West,269,4.0,10.0,87,0.00,,,0.34,meteohub,2013-12-14 19:33:00,
2013-12-14 13:38:00,66.0,62.1,29.90,WNW,288,6.0,10.0,87,0.00,,,0.34,meteohub,2013-12-14 19:38:00,
2013-12-14 13:43:00,66.0,62.4,29.91,WNW,298,7.0,10.0,88,0.00,,,0.34,meteohub,2013-12-14 19:43:00,
2013-12-14 13:48:00,65.8,62.2,29.91,WNW,282,4.0,10.0,88,0.00,,,0.34,meteohub,2013-12-14 19:48:00,
2013-12-14 13:53:00,65.7,62.1,29.91,NW,311,4.0,8.0,88,0.00,,,0.34,meteohub,2013-12-14 19:53:00,
2013-12-14 13:58:00,64.9,61.3,29.91,NW,305,4.0,8.0,88,0.00,,,0.34,meteohub,2013-12-14 19:58:00,
2013-12-14 14:03:00,64.4,61.2,29.90,NW,311,0.0,7.0,89,0.00,,,0.34,meteohub,2013-12-14 20:03:00,
2013-12-14 14:08:00,64.2,61.2,29.91,WNW,284,3.0,7.0,90,0.01,,,0.35,meteohub,2013-12-14 20:08:00,
2013-12-14 14:13:00,64.0,61.3,29.91,WNW,283,3.0,7.0,91,0.01,,,0.35,meteohub,2013-12-14 20:13:00,
2013-12-14 14:18:00,64.2,61.9,29.90,West,277,0.0,5.0,92,0.01,,,0.35,meteohub,2013-12-14 20:18:00,
2013-12-14 14:23:00,64.2,61.9,29.89,West,277,0.0,5.0,92,0.01,,,0.35,meteohub,2013-12-14 20:23:00,
2013-12-14 14:28:00,64.2,61.9,29.89,West,277,0.0,4.0,92,0.01,,,0.35,meteohub,2013-12-14 20:28:00,
2013-12-14 14:33:00,64.6,62.4,29.91,West,265,6.0,6.0,93,0.01,,,0.35,meteohub,2013-12-14 20:33:00,
2013-12-14 14:38:00,64.9,62.8,29.91,West,267,4.0,7.0,93,0.01,,,0.35,meteohub,2013-12-14 20:38:00,
2013-12-14 14:43:00,64.9,62.8,29.91,West,271,3.0,8.0,93,0.01,,,0.35,meteohub,2013-12-14 20:43:00,
2013-12-14 14:48:00,64.9,62.8,29.89,West,277,1.0,8.0,93,0.01,,,0.35,meteohub,2013-12-14 20:48:00,
2013-12-14 14:53:00,64.8,62.6,29.90,West,278,0.0,8.0,93,0.01,,,0.35,meteohub,2013-12-14 20:53:00,
2013-12-14 14:58:00,64.9,62.8,29.91,West,278,2.0,8.0,93,0.01,,,0.35,meteohub,2013-12-14 20:58:00,
2013-12-14 15:03:00,64.9,62.8,29.91,West,275,0.0,5.0,93,0.01,,,0.35,meteohub,2013-12-14 21:03:00,
2013-12-14 15:08:00,64.9,62.6,29.90,West,275,0.0,5.0,92,0.00,,,0.35,meteohub,2013-12-14 21:08:00,
2013-12-14 15:13:00,64.6,62.2,29.90,West,275,0.0,5.0,92,0.00,,,0.35,meteohub,2013-12-14 21:13:00,
2013-12-14 15:18:00,64.2,61.9,29.91,West,275,1.0,4.0,92,0.00,,,0.35,meteohub,2013-12-14 21:18:00,
2013-12-14 15:23:00,64.2,61.9,29.90,West,275,2.0,3.0,92,0.00,,,0.35,meteohub,2013-12-14 21:23:00,
2013-12-14 15:28:00,63.9,61.5,29.89,NNW,344,4.0,4.0,92,0.00,,,0.35,meteohub,2013-12-14 21:28:00,
2013-12-14 15:33:00,63.7,61.3,29.90,NW,311,4.0,5.0,92,0.00,,,0.35,meteohub,2013-12-14 21:33:00,
2013-12-14 15:38:00,63.7,61.3,29.93,WNW,289,2.0,6.0,92,0.00,,,0.35,meteohub,2013-12-14 21:38:00,
2013-12-14 15:43:00,63.7,61.3,29.91,NNW,331,4.0,6.0,92,0.00,,,0.35,meteohub,2013-12-14 21:43:00,
2013-12-14 15:48:00,63.7,61.0,29.91,NNW,333,0.0,6.0,91,0.00,,,0.35,meteohub,2013-12-14 21:48:00,
2013-12-14 15:53:00,63.7,61.3,29.91,NNW,333,5.0,6.0,92,0.00,,,0.35,meteohub,2013-12-14 21:53:00,
2013-12-14 15:58:00,63.5,60.8,29.91,NW,310,3.0,6.0,91,0.00,,,0.35,meteohub,2013-12-14 21:58:00,
2013-12-14 16:03:00,63.3,60.6,29.93,NW,306,2.0,7.0,91,0.00,,,0.35,meteohub,2013-12-14 22:03:00,
2013-12-14 16:08:00,63.1,60.1,29.92,NNW,331,5.0,9.0,90,0.00,,,0.35,meteohub,2013-12-14 22:08:00,
2013-12-14 16:13:00,63.3,60.3,29.93,NW,321,6.0,9.0,90,0.00,,,0.35,meteohub,2013-12-14 22:13:00,
2013-12-14 16:18:00,63.3,60.1,29.93,NNW,346,6.0,9.0,89,0.00,,,0.35,meteohub,2013-12-14 22:18:00,
2013-12-14 16:23:00,63.1,59.5,29.93,NNW,337,7.0,9.0,88,0.00,,,0.35,meteohub,2013-12-14 22:23:00,
2013-12-14 16:28:00,63.0,58.6,29.94,NW,325,7.0,12.0,86,0.00,,,0.35,meteohub,2013-12-14 22:28:00,
2013-12-14 16:33:00,62.8,58.5,29.93,NNW,336,8.0,12.0,86,0.00,,,0.35,meteohub,2013-12-14 22:33:00,
2013-12-14 16:38:00,62.4,57.6,29.94,NNW,344,9.0,17.0,84,0.00,,,0.35,meteohub,2013-12-14 22:38:00,
2013-12-14 16:43:00,62.1,56.8,29.92,NNW,333,13.0,19.0,83,0.00,,,0.35,meteohub,2013-12-14 22:43:00,
2013-12-14 16:48:00,61.9,56.7,29.95,NW,305,14.0,19.0,83,0.00,,,0.35,meteohub,2013-12-14 22:48:00,
2013-12-14 16:53:00,61.3,56.1,29.97,NW,317,19.0,19.0,83,0.00,,,0.35,meteohub,2013-12-14 22:53:00,
2013-12-14 16:58:00,61.2,55.9,29.95,NNW,347,12.0,19.0,83,0.00,,,0.35,meteohub,2013-12-14 22:58:00,
2013-12-14 17:03:00,61.0,55.8,29.96,NNW,341,19.0,19.0,83,0.00,,,0.35,meteohub,2013-12-14 23:03:00,
2013-12-14 17:08:00,60.6,55.8,29.96,NNW,344,12.0,23.0,84,0.00,,,0.35,meteohub,2013-12-14 23:08:00,
2013-12-14 17:13:00,59.9,55.0,29.97,NNW,329,10.0,23.0,84,0.00,,,0.35,meteohub,2013-12-14 23:13:00,
2013-12-14 17:18:00,59.4,54.9,29.98,NW,309,14.0,23.0,85,0.00,,,0.35,meteohub,2013-12-14 23:18:00,
2013-12-14 17:23:00,59.0,54.9,29.97,NW,325,10.0,19.0,86,0.00,,,0.35,meteohub,2013-12-14 23:23:00,
2013-12-14 17:28:00,58.6,54.5,29.98,NW,317,9.0,19.0,86,0.00,,,0.35,meteohub,2013-12-14 23:28:00,
2013-12-14 17:33:00,58.3,54.1,29.98,NNW,342,13.0,20.0,86,0.00,,,0.35,meteohub,2013-12-14 23:33:00,
2013-12-14 17:38:00,57.6,53.4,29.99,NW,326,15.0,22.0,86,0.00,,,0.35,meteohub,2013-12-14 23:38:00,
2013-12-14 17:43:00,57.0,52.9,29.98,NNW,334,9.0,22.0,86,0.00,,,0.35,meteohub,2013-12-14 23:43:00,
2013-12-14 17:48:00,56.7,52.5,30.00,NNW,336,10.0,22.0,86,0.00,,,0.35,meteohub,2013-12-14 23:48:00,
2013-12-14 17:53:00,56.3,52.2,30.01,NW,314,12.0,20.0,86,0.00,,,0.35,meteohub,2013-12-14 23:53:00,
2013-12-14 17:58:00,56.1,52.3,30.01,NNW,332,13.0,21.0,87,0.00,,,0.35,meteohub,2013-12-14 23:58:00,
2013-12-14 18:03:00,55.9,52.2,30.01,NNW,333,10.0,21.0,87,0.00,,,0.35,meteohub,2013-12-15 00:03:00,
2013-12-14 18:08:00,55.4,51.3,30.01,NW,317,15.0,21.0,86,0.00,,,0.35,meteohub,2013-12-15 00:08:00,
2013-12-14 18:13:00,55.0,50.9,30.03,WNW,293,18.0,20.0,86,0.00,,,0.35,meteohub,2013-12-15 00:13:00,
2013-12-14 18:18:00,54.7,50.9,30.03,NW,311,11.0,27.0,87,0.00,,,0.35,meteohub,2013-12-15 00:18:00,
2013-12-14 18:23:00,54.5,50.7,30.03,NNW,327,10.0,27.0,87,0.00,,,0.35,meteohub,2013-12-15 00:23:00,
2013-12-14 18:28:00,54.1,50.4,30.05,NW,322,17.0,27.0,87,0.00,,,0.35,meteohub,2013-12-15 00:28:00,
2013-12-14 18:33:00,54.0,50.2,30.04,NW,325,14.0,21.0,87,0.00,,,0.35,meteohub,2013-12-15 00:33:00,
2013-12-14 18:38:00,53.8,50.4,30.04,NW,323,9.0,21.0,88,0.00,,,0.35,meteohub,2013-12-15 00:38:00,
2013-12-14 18:43:00,53.4,49.6,30.06,NNW,337,13.0,21.0,87,0.00,,,0.35,meteohub,2013-12-15 00:43:00,
2013-12-14 18:48:00,53.2,49.5,30.04,NW,316,8.0,20.0,87,0.00,,,0.35,meteohub,2013-12-15 00:48:00,
2013-12-14 18:53:00,53.1,48.9,30.06,NNW,333,17.0,24.0,86,0.00,,,0.35,meteohub,2013-12-15 00:53:00,
2013-12-14 18:58:00,52.9,48.7,30.06,NW,317,4.0,24.0,86,0.00,,,0.35,meteohub,2013-12-15 00:58:00,
2013-12-14 19:03:00,52.9,48.7,30.05,North,355,13.0,24.0,86,0.00,,,0.35,meteohub,2013-12-15 01:03:00,
2013-12-14 19:08:00,52.7,48.6,30.06,NW,316,10.0,24.0,86,0.00,,,0.35,meteohub,2013-12-15 01:08:00,
2013-12-14 19:13:00,52.5,48.7,30.05,NNW,342,14.0,21.0,87,0.00,,,0.35,meteohub,2013-12-15 01:13:00,
2013-12-14 19:18:00,52.3,48.6,30.06,NW,326,12.0,21.0,87,0.00,,,0.35,meteohub,2013-12-15 01:18:00,
2013-12-14 19:23:00,52.2,48.4,30.06,NNW,336,14.0,15.0,87,0.00,,,0.35,meteohub,2013-12-15 01:23:00,
2013-12-14 19:28:00,52.2,48.4,30.07,NNW,338,10.0,16.0,87,0.00,,,0.35,meteohub,2013-12-15 01:28:00,
2013-12-14 19:33:00,52.0,48.2,30.07,NNW,342,14.0,17.0,87,0.00,,,0.35,meteohub,2013-12-15 01:33:00,
2013-12-14 19:38:00,51.6,47.8,30.06,NW,317,11.0,19.0,87,0.00,,,0.35,meteohub,2013-12-15 01:38:00,
2013-12-14 19:43:00,51.6,47.8,30.06,NNW,334,9.0,19.0,87,0.00,,,0.35,meteohub,2013-12-15 01:43:00,
2013-12-14 19:48:00,51.4,47.7,30.07,NNW,336,17.0,22.0,87,0.00,,,0.35,meteohub,2013-12-15 01:48:00,
2013-12-14 19:53:00,51.4,48.0,30.06,NNW,332,9.0,22.0,88,0.00,,,0.35,meteohub,2013-12-15 01:53:00,
2013-12-14 19:58:00,51.3,47.8,30.06,NNW,327,13.0,22.0,88,0.00,,,0.35,meteohub,2013-12-15 01:58:00,
2013-12-14 20:03:00,51.1,48.0,30.07,North,349,13.0,20.0,89,0.00,,,0.35,meteohub,2013-12-15 02:03:00,
2013-12-14 20:08:00,50.7,47.7,30.07,NNW,336,13.0,20.0,89,0.00,,,0.35,meteohub,2013-12-15 02:08:00,
2013-12-14 20:13:00,50.5,47.5,30.08,NNW,331,13.0,20.0,89,0.00,,,0.35,meteohub,2013-12-15 02:13:00,
2013-12-14 20:18:00,50.4,47.3,30.08,North,355,9.0,20.0,89,0.00,,,0.35,meteohub,2013-12-15 02:18:00,
2013-12-14 20:23:00,50.2,47.1,30.08,NNW,340,18.0,19.0,89,0.00,,,0.35,meteohub,2013-12-15 02:23:00,
2013-12-14 20:28:00,50.2,47.1,30.09,NNW,337,15.0,20.0,89,0.00,,,0.35,meteohub,2013-12-15 02:28:00,
2013-12-14 20:33:00,50.2,46.8,30.09,NNW,329,18.0,21.0,88,0.00,,,0.35,meteohub,2013-12-15 02:33:00,
2013-12-14 20:38:00,50.0,46.6,30.09,NNW,333,14.0,22.0,88,0.00,,,0.35,meteohub,2013-12-15 02:38:00,
2013-12-14 20:43:00,49.8,46.4,30.09,NNW,339,16.0,22.0,88,0.00,,,0.35,meteohub,2013-12-15 02:43:00,
2013-12-14 20:48:00,49.6,46.2,30.10,NNW,347,14.0,22.0,88,0.00,,,0.35,meteohub,2013-12-15 02:48:00,
2013-12-14 20:53:00,49.5,45.7,30.10,North,355,12.0,22.0,87,0.00,,,0.35,meteohub,2013-12-15 02:53:00,
2013-12-14 20:58:00,49.3,45.3,30.10,NNE,18,13.0,24.0,86,0.00,,,0.35,meteohub,2013-12-15 02:58:00,
2013-12-14 21:03:00,49.3,45.3,30.11,NNW,336,10.0,24.0,86,0.00,,,0.35,meteohub,2013-12-15 03:03:00,
2013-12-14 21:08:00,49.1,45.1,30.11,North,355,13.0,24.0,86,0.00,,,0.35,meteohub,2013-12-15 03:08:00,
2013-12-14 21:13:00,49.1,45.1,30.11,North,355,11.0,20.0,86,0.00,,,0.35,meteohub,2013-12-15 03:13:00,
2013-12-14 21:18:00,48.9,45.0,30.11,North,355,9.0,18.0,86,0.00,,,0.35,meteohub,2013-12-15 03:18:00,
2013-12-14 21:23:00,48.9,45.0,30.11,NNW,340,7.0,17.0,86,0.00,,,0.35,meteohub,2013-12-15 03:23:00,
2013-12-14 21:28:00,48.9,45.0,30.11,North,355,7.0,17.0,86,0.00,,,0.35,meteohub,2013-12-15 03:28:00,
2013-12-14 21:33:00,48.9,45.0,30.11,NNW,338,7.0,17.0,86,0.00,,,0.35,meteohub,2013-12-15 03:33:00,
2013-12-14 21:38:00,48.9,45.0,30.12,NNW,333,9.0,17.0,86,0.00,,,0.35,meteohub,2013-12-15 03:38:00,
2013-12-14 21:43:00,48.7,44.8,30.12,NNW,338,6.0,15.0,86,0.00,,,0.35,meteohub,2013-12-15 03:43:00,
2013-12-14 21:48:00,48.7,44.4,30.12,NNW,347,14.0,15.0,85,0.00,,,0.35,meteohub,2013-12-15 03:48:00,
2013-12-14 21:53:00,48.7,44.4,30.12,NNW,338,8.0,17.0,85,0.00,,,0.35,meteohub,2013-12-15 03:53:00,
2013-12-14 21:58:00,48.7,44.8,30.12,NNW,328,13.0,17.0,86,0.00,,,0.35,meteohub,2013-12-15 03:58:00,
2013-12-14 22:03:00,48.7,44.4,30.12,NNW,332,9.0,17.0,85,0.00,,,0.35,meteohub,2013-12-15 04:03:00,
2013-12-14 22:08:00,48.6,44.2,30.13,NNW,348,15.0,16.0,85,0.00,,,0.35,meteohub,2013-12-15 04:08:00,
2013-12-14 22:13:00,48.6,44.2,30.13,NNW,336,11.0,20.0,85,0.00,,,0.35,meteohub,2013-12-15 04:13:00,
2013-12-14 22:18:00,48.6,44.2,30.13,NW,319,16.0,20.0,85,0.00,,,0.35,meteohub,2013-12-15 04:18:00,
2013-12-14 22:23:00,48.6,44.2,30.14,NNW,344,18.0,20.0,85,0.00,,,0.35,meteohub,2013-12-15 04:23:00,
2013-12-14 22:28:00,48.6,44.2,30.14,NW,321,8.0,18.0,85,0.00,,,0.35,meteohub,2013-12-15 04:28:00,
2013-12-14 22:33:00,48.6,44.2,30.14,NNW,344,11.0,18.0,85,0.00,,,0.35,meteohub,2013-12-15 04:33:00,
2013-12-14 22:38:00,48.6,44.2,30.14,NW,321,5.0,18.0,85,0.00,,,0.35,meteohub,2013-12-15 04:38:00,
2013-12-14 22:43:00,48.6,44.2,30.14,NNW,327,9.0,16.0,85,0.00,,,0.35,meteohub,2013-12-15 04:43:00,
2013-12-14 22:48:00,48.6,44.2,30.14,NNW,331,12.0,16.0,85,0.00,,,0.35,meteohub,2013-12-15 04:48:00,
2013-12-14 22:53:00,48.6,44.2,30.14,NW,321,13.0,17.0,85,0.00,,,0.35,meteohub,2013-12-15 04:53:00,
2013-12-14 22:58:00,48.4,44.1,30.14,NNW,335,13.0,18.0,85,0.00,,,0.35,meteohub,2013-12-15 04:58:00,
2013-12-14 23:01:00,48.4,44.1,30.14,NNW,333,11.0,18.0,85,0.00,,,0.35,meteohub,2013-12-15 05:01:00,
2013-12-14 23:02:00,48.4,44.1,30.14,NNW,336,15.0,18.0,85,0.00,,,0.35,meteohub,2013-12-15 05:02:00,
2013-12-14 23:07:00,48.4,44.1,30.15,NNW,334,10.0,18.0,85,0.00,,,0.35,meteohub,2013-12-15 05:07:00,
2013-12-14 23:12:00,48.4,44.1,30.15,NNW,342,13.0,18.0,85,0.00,,,0.35,meteohub,2013-12-15 05:12:00,
2013-12-14 23:17:00,48.4,44.1,30.15,NW,313,8.0,18.0,85,0.00,,,0.35,meteohub,2013-12-15 05:17:00,
2013-12-14 23:22:00,48.6,44.2,30.15,NW,323,7.0,18.0,85,0.00,,,0.35,meteohub,2013-12-15 05:22:00,
2013-12-14 23:27:00,48.4,44.1,30.15,NNW,342,10.0,18.0,85,0.00,,,0.35,meteohub,2013-12-15 05:27:00,
2013-12-14 23:32:00,48.4,44.1,30.15,NNW,341,15.0,17.0,85,0.00,,,0.35,meteohub,2013-12-15 05:32:00,
2013-12-14 23:37:00,48.4,44.1,30.15,NW,306,12.0,17.0,85,0.00,,,0.35,meteohub,2013-12-15 05:37:00,
2013-12-14 23:42:00,48.4,44.1,30.15,NW,315,15.0,17.0,85,0.00,,,0.35,meteohub,2013-12-15 05:42:00,
2013-12-14 23:47:00,48.4,44.1,30.15,NW,321,5.0,17.0,85,0.00,,,0.35,meteohub,2013-12-15 05:47:00,
2013-12-14 23:52:00,48.4,44.1,30.15,NNW,346,9.0,17.0,85,0.00,,,0.35,meteohub,2013-12-15 05:52:00,
2013-12-14 23:57:00,48.4,44.1,30.15,NNW,338,11.0,17.0,85,0.00,,,0.35,meteohub,2013-12-15 05:57:00,